User: anonymous
Location: Unspecified
(0.0000°N, 0.0000°E)
Time: 03:18:35
(UTC+02:00)
Language:

Cosmos 1092 Rocket - Orbit

View from above orbital plane
View from above orbital plane
View from above satellite
View from above satellite

Ground track
Ground track

The orbit data is extracted from the following two-line orbital elements,

1 11327U 79030B   14210.43509005  .00000063  00000-0  48382-4 0  8039
2 11327 082.9517 358.2646 0026599 247.8353 164.7004 13.76937984774125
Epoch (UTC): 29 July 2014 10:26:31
Eccentricity: 0.0026599
inclination: 82.9517°
perigee height: 955 km
apogee height: 994 km
right ascension of ascending node: 358.2646°
argument of perigee: 247.8353°
revolutions per day: 13.76937984
mean anomaly at epoch: 164.7004°
orbit number at epoch: 77412

The dashed part of the orbit path shows where the satellite is in the earth's shadow,  

DLR